Hourly Data Report for January 31, 2013

DEER LAKE A
NEWFOUNDLAND

49°12'33.000" N
57°23'40.000" W
21.90 m
8401502
71809
YDF

Download Data

Hourly Data (January 2013)
Hourly Data Report for January 31, 2013
TIME
LST
Temp Definition
°C
Dew Point Definition
°C
Rel Hum Definition
%
Precip. Amount Definition
mm

Wind Dir Definition
10's deg

Wind Spd Definition
km/h
Visibility Definition
km
Stn Press Definition
kPa
Hmdx Definition


Wind Chill Definition


Weather Definition


00:30 1.3 0.9 97   17 6 9.7 99.56     Rain
01:30 0.8 0.7 99     0 8.1 99.48     Rain
02:30 1.3 1.3 100   21 13 6.4 99.39     Rain
03:30 2.3 2.3 100   26 8 9.7 99.26     Rain
04:30 6.2 5.6 96   24 23 12.9 99.18     Rain
05:30 6.4 5.8 96   24 24 12.9 99.13     Rain
06:30 6.3 5.7 96   24 24 12.9 99.19     Rain
07:30 LegendMM LegendMM LegendMM   LegendMM LegendMM 9.7 LegendMM     Rain
08:30 6.6 6.2 97   24 16 9.7 99.23     Rain
09:30 6.8 6.2 96   23 28 6.4 99.23     Rain
10:30 4.5 4.2 98   21 21 6.4 99.22     Rain
11:30 6.2 6.2 100   24 7 6.4 99.19     Rain
12:30 8.5 8.4 99   25 13 12.9 99.07     Rain
13:30 7.4 6.8 96   9 5 24.1 98.96     LegendNANA
14:30 8.9 8.6 98   14 11 24.1 98.85     Mostly Cloudy
15:30 9.4 7.2 86   22 27 24.1 98.70     LegendNANA
16:30 10.5 7.8 83   20 54 24.1 98.55     LegendNANA
17:30 10.1 7.9 86   20 48 24.1 98.48     Mostly Cloudy
18:30 10.4 8.2 86   22 47 24.1 98.36     LegendNANA
19:30 10.6 8.2 85   23 35 24.1 LegendMM     LegendNANA
20:30 9.2 7.5 89   21 34 12.9 97.95     Rain
21:30 9.6 7.4 86   21 45 12.9 97.88     Rain
22:30 8.9 6.2 83   20 49 16.1 97.79     Rain
23:30 8.3 5.4 82   20 33 19.3 97.72     Rain

Notes on Data Quality.

Legend

  • E = Estimated
  • M = Missing
  • NA = Not Available*
  • [empty] = Indicates an unobserved value
Date modified: